• Join FlightAware (Why Join?)
  • Login
  • US Flag 
08:08AM EST


 

Airport Tracker/Info


-or-


 

Live Flight TrackerFlight Track Log ✈ N195AM ✈ 26-Jun-2013 ✈ 19M - KLFT

Flight Track Log - Related Links

Times and Time Zones

All times are in EDT time to prevent confusion due to time zone crossing. See the N195AM flight status page for this flight to view local times or setup timezone preferences in your user account.

Time Position Orientation Groundspeed Altitude Reporting Facility
EDT Latitude Longitude Course Direction KTS MPH feet Rate Location/Type
07:50PM 33.0744 -90.0572 211° Southwest 180 207 1,500  Level Memphis Center
07:51PM 33.0431 -90.0797 211° Southwest 165 190 2,200 750 Climbing Memphis Center
07:52PM 33.0139 -90.0997 210° Southwest 141 162 3,000 750 Climbing Memphis Center
07:53PM 32.9869 -90.1194 212° Southwest 129 148 3,700 700 Climbing Memphis Center
07:54PM 32.9578 -90.1394 210° Southwest 123 142 4,400 650 Climbing Memphis Center
07:55PM 32.9264 -90.1617 211° Southwest 123 142 5,000 650 Climbing Memphis Center
07:56PM 32.8931 -90.1842 210° Southwest 123 142 5,700 500 Climbing Memphis Center
07:57PM 32.8575 -90.2064 208° Southwest 128 147 6,000 150 Climbing Memphis Center
07:58PM 32.8181 -90.2361 212° Southwest 147 169 6,000  Level Memphis Center
07:59PM 32.7783 -90.2633 210° Southwest 162 186 6,000  Level Memphis Center
08:00PM 32.7367 -90.2931 211° Southwest 168 193 6,000  Level Memphis Center
08:01PM 32.6969 -90.3178 208° Southwest 168 193 6,000  Level Memphis Center
08:02PM 32.6531 -90.3500 212° Southwest 168 193 6,000  Level Memphis Center
08:03PM 32.6156 -90.3769 211° Southwest 168 193 6,000  Level Memphis Center
08:04PM 32.5739 -90.4017 207° Southwest 168 193 6,000  Level Memphis Center
08:05PM 32.5300 -90.4361 213° Southwest 168 193 6,000  Level Memphis Center
08:06PM 32.4881 -90.4608 206° Southwest 168 193 6,000  Level Memphis Center
08:07PM 32.4464 -90.4903 211° Southwest 168 193 6,000  Level Memphis Center
08:08PM 32.4067 -90.5197 212° Southwest 168 193 6,000  Level Memphis Center
08:09PM 32.3669 -90.5467 210° Southwest 168 193 6,000  Level Memphis Center
08:10PM 32.3231 -90.5736 207° Southwest 168 193 6,000  Level Memphis Center
08:11PM 32.2833 -90.6031 212° Southwest 168 193 6,000  Level Memphis Center
08:12PM 32.2417 -90.6325 211° Southwest 173 199 6,000  Level Memphis Center
08:13PM 32.1997 -90.6592 208° Southwest 173 199 6,000  Level Memphis Center
08:14PM 32.1600 -90.6886 212° Southwest 173 199 6,000  Level Memphis Center
08:15PM 32.1183 -90.7156 209° Southwest 173 199 6,000  Level Memphis Center
08:16PM 32.0783 -90.7422 209° Southwest 173 199 6,000  Level Memphis Center
08:17PM 32.0344 -90.7714 209° Southwest 173 199 6,000  Level Memphis Center
08:18PM 31.9928 -90.7983 209° Southwest 178 205 6,000  Level Memphis Center
08:19PM 31.9531 -90.8250 210° Southwest 178 205 6,000  Level Memphis Center
08:20PM 31.9089 -90.8542 209° Southwest 178 205 6,000  Level Memphis Center
08:21PM 31.8531 -90.8972 213° Southwest 172 198 6,000  Level Houston Center
08:22PM 31.8122 -90.9256 211° Southwest 170 196 6,000  Level Houston Center
08:23PM 31.7703 -90.9536 210° Southwest 172 198 6,000  Level Houston Center
08:24PM 31.7297 -90.9822 211° Southwest 171 197 6,000 -48 Level Houston Center
08:25PM 31.6867 -91.0075 207° Southwest 173 199 5,900 -49 Descending Houston Center
08:26PM 31.6383 -91.0403 210° Southwest 170 196 5,900  Level Houston Center
08:28PM 31.5961 -91.0686 210° Southwest 173 199 5,900  Level Houston Center
08:29PM 31.5564 -91.0958 210° Southwest 169 194 5,900 48 Level Houston Center
08:30PM 31.5133 -91.1256 210° Southwest 171 197 6,000 49 Climbing Houston Center
08:31PM 31.4717 -91.1528 209° Southwest 171 197 6,000  Level Houston Center
08:32PM 31.4303 -91.1803 210° Southwest 172 198 6,000  Level Houston Center
08:33PM 31.3889 -91.2083 210° Southwest 172 198 6,000  Level Houston Center
08:34PM 31.3483 -91.2353 210° Southwest 169 194 6,000  Level Houston Center
08:35PM 31.2983 -91.2692 210° Southwest 172 198 6,000 -49 Level Houston Center
08:36PM 31.2594 -91.2939 209° Southwest 168 193 5,900 -48 Descending Houston Center
08:37PM 31.2169 -91.3222 210° Southwest 172 198 5,900  Level Houston Center
08:38PM 31.1750 -91.3503 210° Southwest 173 199 5,900  Level Houston Center
08:39PM 31.1342 -91.3775 210° Southwest 172 198 5,900  Level Houston Center
08:40PM 31.0919 -91.4061 210° Southwest 173 199 5,900 48 Level Houston Center
08:41PM 31.0472 -91.4358 210° Southwest 174 200 6,000 49 Climbing Houston Center
08:42PM 30.9967 -91.4689 209° Southwest 174 200 6,000  Level Houston Center
08:43PM 30.9547 -91.4967 210° Southwest 174 200 6,000  Level Houston Center
08:44PM 30.9139 -91.5242 210° Southwest 172 198 6,000  Level Houston Center
08:45PM 30.8719 -91.5517 209° Southwest 172 198 6,000  Level Houston Center
08:46PM 30.8303 -91.5792 210° Southwest 172 198 6,000  Level Houston Center
08:47PM 30.7869 -91.6072 209° Southwest 175 201 6,000  Level Houston Center
08:48PM 30.7436 -91.6350 209° Southwest 177 204 6,000  Level Houston Center
08:49PM 30.7014 -91.6639 210° Southwest 176 203 6,000  Level Houston Center
08:50PM 30.6500 -91.6964 209° Southwest 176 203 6,000 -195 Level Houston Center
08:51PM 30.6081 -91.7247 210° Southwest 174 200 5,600 -390 Descending Houston Center
08:52PM 30.5636 -91.7525 208° Southwest 178 205 5,200 -387 Descending Houston Center
08:53PM 30.5211 -91.7814 210° Southwest 178 205 4,800 -439 Descending Houston Center
08:54PM 30.4803 -91.8072 209° Southwest 171 197 4,300 -488 Descending Houston Center
08:55PM 30.4411 -91.8331 210° Southwest 164 189 3,800 -435 Descending Houston Center
08:56PM 30.4000 -91.8603 210° Southwest 168 193 3,400 -537 Descending Houston Center
08:57PM 30.3511 -91.8903 208° Southwest 167 192 2,700 -683 Descending Houston Center
08:58PM 30.3067 -91.9072 198° South 168 193 2,000 -629 Descending Houston Center
08:59PM 30.2628 -91.9256 200° South 164 189 1,400 -581 Descending Houston Center
09:01PM 30.2223 -91.9628 219° Southwest  Level FlightAware Approximate
09:08PM 30.2000 -91.9833 213° Southwest  Level FlightAware Approximate
09:09PM 30.2050 -91.9877 213° Southwest  Level Estimated
09:10PM 30.2000 -91.9833 213° Southwest  Level FlightAware Approximate
09:11PM 30.2050 -91.9877 213° Southwest  Level Estimated